Regional Weather Roundup
Issued by NWS

Home | Current Version | Previous Version | Text Only | Print | Product List | Glossary On
Versions: 1 2 3 4 5 6 7 8 9 10 11 12 13 14 15 16 17 18 19 20 21 22 23 24 25 26 27 28 29 30 31 32 33 34 35 36 37 38 39 40 41 42 43 44 45 46 47 48 49 50
000
ASUS46 KPQR 052110
RWROR

OREGON REGIONAL WEATHER ROUNDUP
NATIONAL WEATHER SERVICE PORTLAND OR
200 PM PDT TUE MAY 05 2015

NOTE: "FAIR" INDICATES FEW OR NO CLOUDS BELOW 12,000 FEET WITH
NO SIGNIFICANT WEATHER AND/OR OBSTRUCTIONS TO VISIBILITY.

ORZ001>013-052200-
NORTHWEST OREGON


CITY           SKY/WX    TMP DP  RH WIND       PRES   REMARKS
ASTORIA        MOSUNNY   57  44  62 SW15      30.12R
NEWPORT        MOSUNNY   57  48  72 SW9       30.19S
PORTLAND       PTSUNNY   61  40  45 W5        30.09F
VANCOUVER WA   PTSUNNY   60  41  49 VRB3      30.08F
SCAPPOOSE      PTSUNNY   60  42  51 N9        30.08F
HILLSBORO      PTSUNNY   61  40  45 NW10      30.08F
AURORA         CLOUDY    57  42  57 W9        30.12S
MCMINNVILLE    MOSUNNY   63  45  51 W16G23    30.11F
SALEM          LGT RAIN  58  42  55 W8        30.10S
CORVALLIS      MOSUNNY   61  39  44 CALM      30.12F
EUGENE         PTSUNNY   63  40  42 CALM      30.11F
$$

ORZ021-028-052200-
SOUTHWEST OREGON


CITY           SKY/WX    TMP DP  RH WIND       PRES   REMARKS
NORTH BEND     SUNNY     59  46  63 NW12G18   30.17S
BROOKINGS      SUNNY     60  45  57 NW17G25   30.07F
ROSEBURG       PTSUNNY   63  35  35 N7        30.10F
SEXTON SUMMIT  MOSUNNY   51  34  52 MISG      30.06F
MEDFORD        SUNNY     64  35  34 VRB6      30.04F
$$

ORZ014>016-041-052200-
COLUMBIA GORGE


CITY           SKY/WX    TMP DP  RH WIND       PRES   REMARKS
TROUTDALE      CLOUDY    58  42  55 SW7       30.09S
THE DALLES     MOSUNNY   63  38  39 NW21G30   30.03F
$$

ORZ029>031-041-044-049-050-061>064-502-503-505>511-052200-
EASTERN OREGON


CITY           SKY/WX    TMP DP  RH WIND       PRES   REMARKS
REDMOND        SUNNY     59  23  25 NW13G24   30.00F
BEND           SUNNY     55  23  28 N10G16    30.00S
PRINEVILLE     SUNNY     57  21  24 W10G17    29.99F
KLAMATH FALLS  SUNNY     61  22  22 VRB7      29.96F
LAKEVIEW       SUNNY     66  19  16 W15G22    29.94F
HERMISTON      SUNNY     67  29  24 W16G23    29.99F
PENDLETON      MOSUNNY   61  30  31 W17G24    29.99F
JOHN DAY       SUNNY     59  29  31 N3        29.96F
MEACHAM        SUNNY     53  27  36 W8        30.00F
LA GRANDE      SUNNY     59  25  27 NW12G23   29.97F
BAKER CITY     SUNNY     59  29  31 N23G33    29.94F
BURNS          SUNNY     64  12  13 W13G21    29.92F
ROME             N/A     71  15  11 N13G24    29.85F
ONTARIO        SUNNY     71  23  16 NW21G29   29.86F
$$


USA.gov is the U.S. government's official web portal to all federal, state and local government web resources and services.